Location: Aranbee
(34.0885°N, 118.2342°W)
Time: 04:14:55
(UTC+00:00)

Courier 1B - Pass Details

Date: 30 November 2020
Orbit: 962 x 1209 km, 28.3° (Epoch: 17 January)

Event Time Altitude Azimuth Distance (km) Brightness Sun altitude
Rises 03:41:04 0° 215° (SW) 3,634 10.9 -36.2°
Reaches altitude 10° 03:44:24 10° 199° (SSW) 2,707 10.0 -36.9°
Enters shadow 03:45:16 13° 192° (SSW) 2,514 9.8 -37.0°
